User: anonymous   Login
Location: Unspecified
(0.0000°N, 0.0000°E)
Time: 19:28:43
(UTC+01:00)
Language:

THEMIS E - Orbit

View from above orbital plane
View from above orbital plane
View from above satellite
View from above satellite

Ground track
Ground track

The orbit data is extracted from the following two-line orbital elements,

1 30798U 07004E   19083.57835012 -.00000507  00000-0  00000+0 0  9992
2 30798   6.0189  85.6882 8407998 310.6263   2.1794  0.81732704 42906
Epoch (UTC): 24 March 2019 13:52:49
Eccentricity: 0.8407998
inclination: 6.0189°
perigee height: 1314 km
apogee height: 82570 km
right ascension of ascending node: 85.6882°
argument of perigee: 310.6263°
revolutions per day: 0.81732704
mean anomaly at epoch: 2.1794°
orbit number at epoch: 4290

The dashed part of the orbit path shows where the satellite is in the earth's shadow,  

DLR